Location: Il Ritiro
(43.4167°N, 13.1333°E)
Time: 01:07:49
(UTC+00:00)

Cosmos 2056 Rocket - Pass Details

Date: 05 July 2020
Orbit: 741 x 801 km, 74.0° (Epoch: 10 August)

Event Time Altitude Azimuth Distance (km) Brightness Sun altitude
Rises 22:59:50 0° 332° (NNW) 3,306 7.9 -23.9°
Reaches altitude 10° 23:02:21 10° 325° (NW) 2,378 6.8 -23.9°
Maximum altitude 23:07:21 39° 258° (WSW) 1,178 4.3 -23.9°
Enters shadow 23:07:56 38° 242° (WSW) 1,202 4.2 -23.9°
